This demonstration page uses our WeatherBlox Daily Observations layout. Learn more.

40.92945, -100.16068

Hourly Observations for March 24, 2017

Temp ( °F °C ) Dew Point ( °F °C ) Humidity (%) Winds ( mph kmh ) Pressure ( in mb ) Visibility ( mi km ) Precip ( " mm )
12:15 am 00:15 Cloudy with Rain 56 13.6 53 11.5 87 87 NNE 22 35 29.65 1004 7 11.26538 0.02 0.508
12:35 am 00:35 Cloudy with Light Rain 55 12.6 51 10.7 88 88 NE 29 46 29.68 1005 10 16.0934 0.04 1.016
12:55 am 00:55 Cloudy 55 12.6 51 10.6 88 88 NE 25 41 29.68 1005 10 16.0934 0.04 1.016
1:15 am 01:15 Cloudy 55 12.9 50 10.2 84 84 NNE 20 31 29.68 1005 10 16.0934 0 0
1:35 am 01:35 Cloudy 55 12.8 51 10.7 87 87 NE 25 41 29.68 1005 10 16.0934 0 0
1:55 am 01:55 Mostly Cloudy 55 12.5 51 10.6 88 88 ENE 18 30 29.68 1005 10 16.0934 0 0
2:15 am 02:15 Cloudy 54 12.2 50 10.2 88 88 ENE 22 35 29.71 1006 10 16.0934 0 0
2:35 am 02:35 Cloudy 54 12 50 10.1 88 88 ENE 20 31 29.71 1006 10 16.0934 0 0
2:55 am 02:55 Cloudy with Light Rain 53 11.8 50 10 89 89 ENE 17 28 29.71 1006 10 16.0934 0 0
3:15 am 03:15 Cloudy with Light Rain 53 11.5 50 10 91 91 E 10 17 29.71 1006 7 11.26538 0.01 0.254
3:35 am 03:35 Cloudy with Light Drizzle 53 11.5 50 10.1 91 91 ENE 9 15 29.71 1006 10 16.0934 0.02 0.508
3:55 am 03:55 Cloudy with Light Drizzle 53 11.5 51 10.3 92 92 NE 10 17 29.71 1006 10 16.0934 0.02 0.508
4:15 am 04:15 Cloudy with Light Rain 53 11.6 51 10.5 93 93 NE 12 19 29.71 1006 10 16.0934 0 0
4:35 am 04:35 Cloudy 53 11.7 51 10.5 92 92 NE 18 30 29.68 1005 10 16.0934 0 0
4:55 am 04:55 Cloudy 53 11.5 50 10.1 91 91 N 23 37 29.71 1006 10 16.0934 0 0
5:15 am 05:15 Cloudy 51 10.5 48 9.1 91 91 NNE 18 30 29.71 1006 10 16.0934 0 0
5:35 am 05:35 Cloudy 51 10.3 48 8.8 91 91 NNE 24 39 29.74 1007 10 16.0934 0 0
5:55 am 05:55 Cloudy 50 10 47 8.1 88 88 NNE 21 33 29.77 1008 10 16.0934 0.01 0.254
6:15 am 06:15 Cloudy 49 9.5 46 7.7 89 89 NNE 22 35 29.77 1008 10 16.0934 0 0
6:35 am 06:35 Cloudy 48 9.1 45 7.2 88 88 NNE 24 39 29.8 1009 10 16.0934 0 0
6:55 am 06:55 Cloudy with Light Rain 48 8.9 44 6.8 87 87 NNE 22 35 29.8 1009 10 16.0934 0 0
7:15 am 07:15 Cloudy with Light Drizzle 46 8 43 6 87 87 NNE 26 43 29.8 1009 7 11.26538 0 0
7:35 am 07:35 Cloudy with Light Rain 45 7.1 41 5 87 87 NNE 25 41 29.85 1011 7 11.26538 0 0
7:55 am 07:55 Cloudy with Light Rain 44 6.5 40 4.3 86 86 N 20 31 29.85 1011 7 11.26538 0 0
8:15 am 08:15 Cloudy with Light Rain 43 6.2 40 4.4 88 88 NNE 21 33 29.85 1011 5 8.0467 0.01 0.254
8:35 am 08:35 Cloudy with Light Rain 43 6 39 4.1 88 88 NNE 26 43 29.88 1012 5 8.0467 0.01 0.254
8:55 am 08:55 Windy with Snow Likely 42 5.6 39 4 90 90 N 24 39 29.94 1014 3 4.82802 0.05 1.27
9:15 am 09:15 Cloudy with Rain 42 5.4 39 3.8 90 90 N 22 35 29.94 1014 4 6.43736 0.01 0.254
9:35 am 09:35 Cloudy with Light Rain 41 5 38 3.4 90 90 N 29 46 29.94 1014 3 4.82802 0.04 1.016
9:55 am 09:55 Cloudy with Light Rain 40 4.7 38 3.1 90 90 N 20 31 29.97 1015 2.5 4.02335 0.05 1.27
10:15 am 10:15 Cloudy with Light Rain 40 4.6 38 3.1 90 90 N 29 46 29.97 1015 1.25 2.011675 0.03 0.762
10:35 am 10:35 Cloudy with Light Rain 40 4.6 38 3.2 91 91 NNE 30 48 29.94 1014 1.75 2.816345 0.04 1.016
10:55 am 10:55 Cloudy with Light Rain 41 4.9 38 3.4 90 90 NNE 26 43 29.94 1014 4 6.43736 0.05 1.27
11:15 am 11:15 Cloudy with Mist and Fog 41 5 38 3.3 89 89 NNE 30 48 29.94 1014 5 8.0467 0 0
11:35 am 11:35 Cloudy 41 5.1 38 3.4 89 89 NNE 29 46 29.97 1015 10 16.0934 0 0
11:55 am 11:55 Cloudy 41 5.1 38 3.5 90 90 NNE 29 46 29.97 1015 7 11.26538 0 0
12:15 pm 12:15 Cloudy 42 5.5 39 3.7 88 88 NNE 29 46 29.97 1015 10 16.0934 0 0
12:35 pm 12:35 Cloudy 42 5.5 38 3.5 87 87 NNE 23 37 30 1016 10 16.0934 0 0
12:55 pm 12:55 Cloudy 42 5.3 38 3.4 88 88 NNE 17 28 30 1016 10 16.0934 0 0
1:15 pm 13:15 Cloudy 41 5.2 38 3.2 87 87 NNE 20 31 30.03 1017 10 16.0934 0 0
1:35 pm 13:35 Cloudy with Light Rain 41 5 38 3.3 89 89 NNE 23 37 30.03 1017 7 11.26538 0 0
1:55 pm 13:55 Cloudy with Light Rain 41 5 38 3.5 90 90 NNE 22 35 30.03 1017 4 6.43736 0.04 1.016
2:15 pm 14:15 Cloudy with Light Drizzle 41 4.8 38 3.5 91 91 NE 18 30 30.03 1017 4 6.43736 0 0
2:35 pm 14:35 Cloudy with Light Rain 40 4.7 38 3.3 91 91 NNE 18 30 30.03 1017 3 4.82802 0 0
2:55 pm 14:55 Cloudy with Light Rain 40 4.5 38 3.1 91 91 NNE 16 26 30.06 1018 2 3.21868 0.04 1.016
3:15 pm 15:15 Cloudy with Light Rain 40 4.5 38 3.2 91 91 N 13 20 30.06 1018 1.75 2.816345 0.05 1.27
3:35 pm 15:35 Cloudy with Light Rain 40 4.5 38 3.2 91 91 N 15 24 30.06 1018 1.25 2.011675 0.12 3.048
3:55 pm 15:55 Cloudy with Rain 40 4.5 38 3.2 91 91 N 20 31 30.06 1018 3 4.82802 0.16 4.064
4:15 pm 16:15 Cloudy with Light Rain 40 4.6 38 3.5 93 93 N 18 30 30.06 1018 1.75 2.816345 0.06 1.524
4:35 pm 16:35 Cloudy with Light Rain 40 4.7 38 3.5 92 92 N 17 28 30.06 1018 5 8.0467 0.1 2.54
4:55 pm 16:55 Cloudy with Rain 40 4.7 38 3.5 92 92 N 16 26 30.09 1019 5 8.0467 0.13 3.302
5:15 pm 17:15 Cloudy with Light Rain 41 4.8 38 3.6 92 92 N 17 28 30.09 1019 5 8.0467 0.03 0.762
5:35 pm 17:35 Cloudy with Light Rain 41 4.8 38 3.5 91 91 N 21 33 30.06 1018 5 8.0467 0.06 1.524
5:55 pm 17:55 Cloudy with Light Drizzle 41 5 38 3.5 90 90 NNE 17 28 30.06 1018 10 16.0934 0.06 1.524
6:15 pm 18:15 Cloudy with Light Rain 41 5 38 3.5 90 90 NNE 15 24 30.09 1019 10 16.0934 0.01 0.254
6:35 pm 18:35 Cloudy with Light Rain 41 5 38 3.5 90 90 N 22 35 30.06 1018 10 16.0934 0.02 0.508
6:55 pm 18:55 Cloudy 41 5 38 3.5 90 90 NNE 15 24 30.06 1018 10 16.0934 0.02 0.508
7:15 pm 19:15 Cloudy 41 5.2 38 3.6 90 90 NNE 14 22 30.09 1019 10 16.0934 0 0
7:35 pm 19:35 Cloudy 42 5.5 39 3.8 89 89 NNE 12 19 30.09 1019 10 16.0934 0 0
7:55 pm 19:55 Cloudy 42 5.5 39 3.8 89 89 NE 10 17 30.09 1019 10 16.0934 0 0
8:15 pm 20:15 Cloudy 42 5.5 39 4 90 90 NE 8 13 30.09 1019 10 16.0934 0 0
8:35 pm 20:35 Cloudy with Drizzle 42 5.5 39 4 90 90 NNE 6 9 30.09 1019 10 16.0934 0 0
8:55 pm 20:55 Cloudy with Light Rain 42 5.5 39 4 90 90 NNE 12 19 30.09 1019 10 16.0934 0.01 0.254
9:15 pm 21:15 Cloudy with Light Rain 42 5.5 39 3.7 88 88 N 6 9 30.09 1019 10 16.0934 0.01 0.254
9:35 pm 21:35 Cloudy with Light Rain 42 5.7 39 3.8 88 88 N 17 28 30.09 1019 10 16.0934 0.03 0.762
9:55 pm 21:55 Cloudy with Light Rain 42 5.7 39 3.8 88 88 N 22 35 30.09 1019 10 16.0934 0.04 1.016
10:15 pm 22:15 Cloudy with Light Rain 42 5.7 38 3.5 86 86 NNE 18 30 30.09 1019 10 16.0934 0 0
10:35 pm 22:35 Cloudy with Light Rain 42 5.8 38 3.6 86 86 NNE 16 26 30.09 1019 10 16.0934 0.01 0.254
10:55 pm 22:55 Cloudy 42 5.7 38 3.5 86 86 NNE 13 20 30.09 1019 10 16.0934 0.01 0.254
11:15 pm 23:15 Cloudy 42 5.8 38 3.3 84 84 NNE 15 24 30.09 1019 10 16.0934 0 0
11:35 pm 23:35 Cloudy 42 5.8 38 3.1 83 83 NNE 13 20 30.09 1019 10 16.0934 0 0
11:55 pm 23:55 Cloudy 42 5.6 38 3.1 84 84 NE 14 22 30.09 1019 10 16.0934 0 0

Powered by AerisWeather